GW1927 Weather Reports


time (UTC)temp
C
wind
direction
speed
KPH
gust
KPH
rain 1hr
cm
rain 24hr
cm
rain mn
cm
humidity
%
barometer
mb
20260906104600 23 0 0.0 3.2 0.00 0.00 0.00 96 1013.2
20260906103058 23 278 0.0 1.6 0.00 0.00 0.00 96 1013.0
20260906101604 23 0 0.0 4.8 0.00 0.00 0.00 96 1012.8
20260906094558 23 0 0.0 3.2 0.00 0.00 0.00 96 1012.8
20260906093102 23 0 0.0 1.6 0.00 0.00 0.00 96 1012.7
20260906091600 23 0 0.0 3.2 0.00 0.00 0.00 95 1012.6
20260906090109 23 0 0.0 3.2 0.00 0.00 0.00 96 1012.5
20260906084558 23 0 0.0 3.2 0.00 0.00 0.00 95 1012.7
20260906083100 23 0 0.0 3.2 0.00 0.00 0.00 95 1012.6
20260906081616 23 0 0.0 3.2 0.00 0.00 0.00 95 1012.5
20260906080108 23 0 0.0 3.2 0.00 0.00 0.00 95 1012.4
20260906074613 23 0 0.0 1.6 0.00 0.00 0.00 95 1012.2
20260906073100 23 0 0.0 0.0 0.00 0.00 0.00 95 1012.4
20260906071603 23 0 0.0 0.0 0.00 0.00 0.00 95 1012.3
20260906070057 23 0 0.0 1.6 0.00 0.00 0.00 94 1012.2
20260906064559 23 0 0.0 1.6 0.00 0.00 0.00 94 1012.4
20260906063058 23 0 0.0 0.0 0.00 0.00 0.00 94 1012.4
20260906061610 24 0 0.0 0.0 0.00 0.00 0.00 94 1012.5
20260906060112 24 0 0.0 3.2 0.00 0.00 0.00 94 1012.5
20260906054559 24 0 0.0 0.0 0.00 0.00 0.00 94 1012.5
20260906053100 24 0 0.0 0.0 0.00 0.00 0.00 94 1012.5
20260906051606 24 0 0.0 0.0 0.00 0.00 0.00 93 1012.8
20260906050108 24 0 0.0 1.6 0.00 0.00 0.00 93 1012.9
20260906044559 25 0 0.0 0.0 0.00 0.00 0.00 92 1012.9
20260906043059 25 0 0.0 0.0 0.00 0.00 0.00 92 1012.9
20260906041605 25 0 0.0 1.6 0.00 0.00 0.00 91 1013.1
20260906040105 25 0 0.0 0.0 0.00 0.00 0.00 90 1013.1
20260906034606 25 0 0.0 0.0 0.00 0.00 0.00 90 1013.3
20260906033101 26 0 0.0 0.0 0.00 0.00 0.00 88 1013.3
20260906031607 26 0 0.0 3.2 0.00 0.00 0.00 88 1013.2
20260906024602 26 278 0.0 3.2 0.00 0.00 0.00 87 1013.0
20260906023102 26 0 0.0 0.0 0.00 0.00 0.00 86 1012.8
20260906021608 27 0 0.0 1.6 0.00 0.00 0.00 85 1012.6
20260906020107 27 0 0.0 4.8 0.00 0.00 0.00 84 1012.3
20260906014604 27 252 0.0 3.2 0.00 0.00 0.00 84 1012.3
20260906013103 27 0 0.0 6.4 0.00 0.00 0.00 83 1012.3
20260906011559 28 252 1.6 6.4 0.00 0.00 0.00 82 1012.3
20260906010104 28 0 0.0 4.8 0.00 0.00 0.00 81 1012.3
20260906004604 28 217 0.0 6.4 0.00 0.00 0.00 79 1012.3
20260906003102 29 202 1.6 8.0 0.00 0.00 0.00 78 1012.1
20260906001603 30 179 1.6 8.0 0.00 0.00 0.00 76 1012.2
20260906000108 31 177 0.0 11.3 0.00 0.00 0.00 74 1012.2
20260905234603 31 173 0.0 3.2 0.00 0.00 0.00 72 1012.3
20260905233105 32 78 0.0 3.2 0.00 0.00 0.00 65 1012.1
20260905231609 33 206 3.2 8.0 0.00 0.00 0.00 64 1012.0
20260905230112 33 0 1.6 8.0 0.00 0.00 0.00 64 1012.1
20260905224608 32 192 0.0 8.0 0.00 0.00 0.00 64 1011.9
20260905223107 32 0 1.6 6.4 0.00 0.00 0.00 64 1011.9
20260905221607 32 23 3.2 11.3 0.00 0.00 0.00 64 1011.9
20260905220109 32 349 1.6 9.7 0.00 0.00 0.00 65 1012.1
20260905214603 32 39 4.8 9.7 0.00 0.03 0.00 65 1012.2
20260905213100 32 15 4.8 14.5 0.00 0.03 0.00 64 1012.2
20260905211630 32 63 3.2 14.5 0.00 0.03 0.00 65 1012.3
20260905210120 32 57 4.8 16.1 0.00 0.03 0.00 64 1012.7
20260905204607 32 94 6.4 16.1 0.00 0.08 0.00 67 1012.7
20260905203119 32 75 3.2 14.5 0.00 0.08 0.00 67 1012.9
20260905201604 32 9 6.4 14.5 0.00 0.08 0.00 68 1013.0
20260905194608 32 15 4.8 14.5 0.00 0.13 0.00 69 1013.1
20260905193108 31 38 8.0 16.1 0.00 0.13 0.00 71 1013.1
20260905191605 32 26 3.2 14.5 0.00 0.13 0.00 70 1013.4
20260905190105 31 21 6.4 17.7 0.00 0.13 0.00 70 1013.6
20260905184604 31 51 4.8 14.5 0.00 0.38 0.00 71 1013.9
20260905183107 31 348 9.7 25.7 0.00 0.38 0.00 70 1014.2
20260905181612 31 40 9.7 17.7 0.00 0.38 0.00 71 1014.5
20260905180108 31 352 4.8 17.7 0.00 0.38 0.00 72 1014.6
20260905174600 31 30 4.8 14.5 0.00 0.38 0.00 74 1014.7
20260905173103 30 74 4.8 14.5 0.00 0.38 0.00 76 1014.9
20260905171603 30 335 4.8 14.5 0.00 0.38 0.00 76 1015.0
20260905170105 30 346 6.4 14.5 0.00 0.38 0.00 76 1015.0
20260905164606 29 51 4.8 12.9 0.00 0.38 0.00 79 1015.3
20260905163108 29 39 4.8 12.9 0.00 0.38 0.00 80 1015.4
20260905161604 28 352 1.6 8.0 0.00 0.38 0.00 82 1015.6
20260905160134 28 36 3.2 14.5 0.00 0.38 0.00 82 1015.7
20260905154603 28 54 3.2 11.3 0.00 0.38 0.00 84 1015.7
20260905153056 27 35 3.2 11.3 0.00 0.38 0.00 85 1015.7
20260905151608 27 83 4.8 8.0 0.00 0.38 0.00 87 1015.5
20260905150058 27 56 1.6 14.5 0.00 0.38 0.00 87 1015.4
20260905144558 26 0 1.6 6.4 0.00 0.38 0.00 90 1015.4
20260905143059 25 22 1.6 6.4 0.00 0.38 0.00 93 1015.3
20260905141603 25 0 1.6 6.4 0.00 0.38 0.00 96 1015.3
20260905140059 24 60 1.6 4.8 0.00 0.38 0.00 99 1015.4
20260905134606 24 0 1.6 4.8 0.00 0.38 0.00 99 1015.3
20260905133101 23 337 0.0 3.2 0.00 0.38 0.00 99 1015.2
20260905131606 23 337 1.6 6.4 0.00 0.38 0.00 99 1015.1
20260905130059 23 80 1.6 4.8 0.00 0.38 0.00 99 1015.0
20260905124602 23 296 1.6 3.2 0.00 0.38 0.00 99 1014.8
20260905123105 23 0 0.0 3.2 0.00 0.38 0.00 99 1014.7
20260905121601 23 0 0.0 1.6 0.00 0.38 0.00 98 1014.6
20260905120117 23 0 0.0 1.6 0.00 0.38 0.00 99 1014.4
20260905114605 23 0 0.0 1.6 0.00 0.38 0.00 99 1014.3
20260905113101 23 296 0.0 3.2 0.00 0.38 0.00 99 1014.3
20260905111611 23 0 0.0 3.2 0.00 0.38 0.00 98 1014.3